Weather History for KMNE - October, 2012

Change the Weather History Date:

Thursday, October 11, 2012

  Actual Average (KBAD) Record (KBAD)
Temperature  
Mean Temperature 74 °F -  
Max Temperature 85 °F 74 °F 87 °F (1997)
Min Temperature 62 °F 54 °F 39 °F (2000)
Cooling Degree Days 8    
Growing Degree Days 24 (Base 50)    
Moisture  
Dew Point 62 °F    
Average Humidity 72    
Maximum Humidity 86    
Minimum Humidity 51    
Precipitation  
Precipitation 0.00 in - - ()
Sea Level Pressure  
Sea Level Pressure 30.17 in    
Wind  
Wind Speed 4 mph ()    
Max Wind Speed 13 mph    
Max Gust Speed 16 mph    
Visibility 10.0 miles    
Events      
Averages and records for this station are not official NWS values.
T = Trace of Precipitation, MM = Missing Value Source: Averaged Metar Reports

Daily Weather History Graph

Daily Weather History Graph

Search for Another Location

Airport or City:

Trip Planner

Search our weather history database for the weather conditions in past years. The results will help you decide how hot, cold, wet, or windy it might be!

Date:

Astronomy

Oct. 11, 2012 Rise Set
Actual Time 7:14 AM CDT 6:44 PM CDT
Civil Twilight 6:49 AM CDT 7:09 PM CDT
Nautical Twilight 6:21 AM CDT 7:37 PM CDT
Astronomical Twilight 5:52 AM CDT 8:06 PM CDT
Moon 3:06 AM CDT (10/11) 4:10 PM CDT (10/11)
Length of Visible Light 12h 19m
Length of Day
11h 29m
Waning Crescent, 18% of the Moon is Illuminated
Oct 11
Waning Crescent
Oct 15
New
Oct 21
First Quarter
Oct 29
Full
Nov 6
Last Quarter

Hourly Weather History & Observations

Time (CDT) Temp. Heat Index Dew Point Humidity Pressure Visibility Wind Dir Wind Speed Gust Speed Precip Events Conditions
12:15 AM 64.8 °F - 57.2 °F 76% 30.17 in 10.0 mi East 3.5 mph - N/A   Overcast
12:35 AM 64.4 °F - 57.2 °F 77% 30.16 in 10.0 mi East 4.6 mph - N/A   Mostly Cloudy
12:55 AM 64.4 °F - 57.0 °F 77% 30.15 in 10.0 mi East 4.6 mph - N/A   Overcast
1:15 AM 63.7 °F - 56.7 °F 78% 30.15 in 10.0 mi ESE 5.8 mph - N/A   Scattered Clouds
1:35 AM 63.5 °F - 56.3 °F 77% 30.15 in 10.0 mi East 4.6 mph - N/A   Scattered Clouds
1:55 AM 63.0 °F - 56.3 °F 79% 30.15 in 10.0 mi ESE 4.6 mph - N/A   Mostly Cloudy
2:15 AM 62.8 °F - 56.5 °F 80% 30.15 in 10.0 mi Calm Calm - N/A   Overcast
2:55 AM 63.1 °F - 56.3 °F 78% 30.15 in 10.0 mi ESE 3.5 mph - N/A   Overcast
3:15 AM 62.4 °F - 55.6 °F 78% 30.15 in 10.0 mi Calm Calm - N/A   Mostly Cloudy
3:35 AM 62.2 °F - 55.4 °F 78% 30.16 in 10.0 mi ESE 3.5 mph - N/A   Mostly Cloudy
3:55 AM 62.2 °F - 55.8 °F 79% 30.15 in 10.0 mi ESE 3.5 mph - N/A   Mostly Cloudy
4:15 AM 62.6 °F - 55.4 °F 77% 30.15 in 10.0 mi ESE 5.8 mph - N/A   Overcast
4:35 AM 62.2 °F - 55.0 °F 77% 30.15 in 10.0 mi ESE 5.8 mph - N/A   Mostly Cloudy
4:55 AM 62.2 °F - 55.0 °F 77% 30.16 in 10.0 mi ESE 3.5 mph - N/A   Overcast
5:15 AM 62.6 °F - 55.4 °F 77% 30.16 in 10.0 mi East 3.5 mph - N/A   Overcast
5:35 AM 62.6 °F - 55.4 °F 77% 30.17 in 10.0 mi East 3.5 mph - N/A   Overcast
5:55 AM 62.6 °F - 55.2 °F 77% 30.17 in 10.0 mi East 3.5 mph - N/A   Overcast
6:15 AM 62.6 °F - 55.8 °F 78% 30.17 in 10.0 mi East 3.5 mph - N/A   Overcast
6:35 AM 62.8 °F - 55.8 °F 78% 30.18 in 10.0 mi ESE 3.5 mph - N/A   Overcast
6:55 AM 63.0 °F - 56.3 °F 79% 30.19 in 10.0 mi ESE 3.5 mph - N/A   Overcast
7:15 AM 63.0 °F - 56.3 °F 79% 30.19 in 10.0 mi Calm Calm - N/A   Overcast
7:35 AM 63.1 °F - 56.7 °F 79% 30.20 in 10.0 mi ESE 3.5 mph - N/A   Overcast
7:55 AM 63.1 °F - 57.2 °F 81% 30.19 in 10.0 mi SE 6.9 mph - N/A   Overcast
8:15 AM 64.0 °F - 57.6 °F 79% 30.20 in 10.0 mi SE 4.6 mph - N/A   Overcast
8:35 AM 64.9 °F - 58.3 °F 79% 30.21 in 10.0 mi SE 4.6 mph - N/A   Overcast
8:55 AM 65.8 °F - 59.2 °F 79% 30.21 in 10.0 mi ESE 3.5 mph - N/A   Overcast
9:15 AM 67.3 °F - 60.1 °F 78% 30.21 in 10.0 mi SE 5.8 mph - N/A   Overcast
9:35 AM 68.5 °F - 61.2 °F 77% 30.22 in 10.0 mi SSE 3.5 mph - N/A   Mostly Cloudy
9:55 AM 70.5 °F - 62.1 °F 74% 30.22 in 10.0 mi South 4.6 mph - N/A   Scattered Clouds
10:15 AM 72.3 °F - 63.1 °F 73% 30.22 in 10.0 mi South 3.5 mph - N/A   Scattered Clouds
10:35 AM 73.9 °F - 63.9 °F 71% 30.22 in 10.0 mi South 4.6 mph - N/A   Scattered Clouds
10:55 AM 76.3 °F - 64.8 °F 67% 30.22 in 10.0 mi South 6.9 mph - N/A   Mostly Cloudy
11:15 AM 77.4 °F - 65.7 °F 67% 30.21 in 10.0 mi South 8.1 mph - N/A   Mostly Cloudy
11:35 AM 79.2 °F - 66.4 °F 65% 30.21 in 10.0 mi South 6.9 mph - N/A   Clear
11:55 AM 80.1 °F 82.3 °F 66.9 °F 64% 30.20 in 10.0 mi South 8.1 mph - N/A   Clear
12:15 PM 82.0 °F 84.3 °F 66.6 °F 59% 30.20 in 10.0 mi SSW 6.9 mph - N/A   Clear
12:35 PM 82.2 °F 84.4 °F 66.0 °F 58% 30.20 in 10.0 mi SW 12.7 mph 16.1 mph N/A   Clear
12:55 PM 82.4 °F 84.6 °F 66.2 °F 58% 30.19 in 10.0 mi South 8.1 mph - N/A   Scattered Clouds
1:15 PM 83.7 °F 85.3 °F 65.1 °F 53% 30.18 in 10.0 mi SW 10.4 mph - N/A   Scattered Clouds
1:35 PM 84.6 °F 86.1 °F 64.8 °F 51% 30.17 in 10.0 mi South 5.8 mph - N/A   Clear
1:55 PM 84.0 °F 85.8 °F 64.9 °F 53% 30.17 in 10.0 mi South 9.2 mph - N/A   Mostly Cloudy
2:15 PM 83.5 °F 85.1 °F 64.9 °F 53% 30.16 in 10.0 mi South 5.8 mph - N/A   Overcast
2:35 PM 82.9 °F 84.4 °F 64.4 °F 53% 30.16 in 10.0 mi SSW 8.1 mph - N/A   Mostly Cloudy
2:55 PM 83.5 °F 84.9 °F 64.2 °F 52% 30.16 in 10.0 mi South 5.8 mph - N/A   Mostly Cloudy
3:15 PM 83.8 °F 85.3 °F 64.4 °F 52% 30.15 in 10.0 mi SSW 8.1 mph - N/A   Mostly Cloudy
3:55 PM 84.9 °F 87.1 °F 65.8 °F 53% 30.15 in 10.0 mi Calm Calm - N/A   Mostly Cloudy
4:15 PM 85.3 °F 87.4 °F 65.8 °F 52% 30.14 in 10.0 mi SSW 4.6 mph - N/A   Scattered Clouds
4:35 PM 84.7 °F 86.8 °F 66.0 °F 53% 30.14 in 10.0 mi Calm Calm - N/A   Scattered Clouds
5:15 PM 84.2 °F 86.3 °F 66.0 °F 54% 30.14 in 10.0 mi South 4.6 mph - N/A   Mostly Cloudy
5:35 PM 83.3 °F 85.7 °F 66.7 °F 57% 30.14 in 10.0 mi SSE 4.6 mph - N/A   Scattered Clouds
5:55 PM 82.0 °F 84.5 °F 66.7 °F 60% 30.14 in 10.0 mi SSE 3.5 mph - N/A   Clear
6:35 PM 79.0 °F - 67.6 °F 68% 30.14 in 10.0 mi Calm Calm - N/A   Clear
6:55 PM 77.7 °F - 68.0 °F 72% 30.14 in 10.0 mi Calm Calm - N/A   Clear
7:15 PM 75.7 °F - 67.5 °F 75% 30.14 in 10.0 mi Calm Calm - N/A   Clear
7:35 PM 75.6 °F - 67.6 °F 76% 30.14 in 10.0 mi Calm Calm - N/A   Clear
8:15 PM 73.6 °F - 67.3 °F 81% 30.15 in 10.0 mi Calm Calm - N/A   Clear
8:35 PM 72.9 °F - 67.3 °F 83% 30.16 in 10.0 mi Calm Calm - N/A   Clear
8:55 PM 73.4 °F - 67.1 °F 81% 30.16 in 10.0 mi Calm Calm - N/A   Scattered Clouds
9:15 PM 72.5 °F - 66.7 °F 82% 30.16 in 10.0 mi Calm Calm - N/A   Scattered Clouds
9:35 PM 72.1 °F - 66.6 °F 83% 30.17 in 10.0 mi Calm Calm - N/A   Clear
9:55 PM 72.1 °F - 66.2 °F 82% 30.17 in 10.0 mi Calm Calm - N/A   Clear
10:35 PM 71.6 °F - 65.7 °F 81% 30.17 in 10.0 mi Calm Calm - N/A   Clear
10:55 PM 71.4 °F - 65.3 °F 81% 30.17 in 10.0 mi Calm Calm - N/A   Clear
11:15 PM 70.3 °F - 65.3 °F 84% 30.17 in 10.0 mi Calm Calm - N/A   Clear
11:35 PM 70.2 °F - 65.3 °F 85% 30.17 in 10.0 mi Calm Calm - N/A   Clear
11:55 PM 69.1 °F - 64.8 °F 86% 30.17 in 10.0 mi Calm Calm - N/A   Clear